Taunton, MA

11:42 PM EDT on July 21, 2017 (GMT -0400)
Taunton Municipal

Weather History for KTAN - October, 2013

Change the Weather History Date:

Sunday, October 6, 2013

  Actual Average Record
Temperature  
Mean Temperature 60 °F -  
Max Temperature 63 °F 65 °F 87 °F (2007)
Min Temperature 57 °F 42 °F 24 °F (1965)
Degree Days  
Heating Degree Days 5    
Growing Degree Days 10 (Base 50)    
Moisture  
Dew Point 57 °F    
Average Humidity 87    
Maximum Humidity 97    
Minimum Humidity 75    
Precipitation  
Precipitation 0.06 in - - ()
Sea Level Pressure  
Sea Level Pressure 30.17 in    
Wind  
Wind Speed 2 mph (East)    
Max Wind Speed 8 mph    
Max Gust Speed -    
Visibility 9 miles    
Events Rain    
Averages and records for this station are not official NWS values.
T = Trace of Precipitation, MM = Missing Value Source: NWS Daily Summary

Daily Weather History Graph

Daily Weather History Graph

Search for Another Location

Airport or City:

Trip Planner

Search our weather history database for the weather conditions in past years. The results will help you decide how hot, cold, wet, or windy it might be!

Date:

Astronomy

Oct. 06, 2013 Rise Set
Actual Time 6:46 AM EDT 6:16 PM EDT
Civil Twilight 6:18 AM EDT 6:44 PM EDT
Nautical Twilight 5:46 AM EDT 7:16 PM EDT
Astronomical Twilight 5:14 AM EDT 7:49 PM EDT
Moon 8:29 AM EDT (10/6) 7:11 PM EDT (10/6)
Length of Visible Light 12h 25m
Length of Day
11h 30m
Waxing Crescent, 3% of the Moon is Illuminated
Oct 6
Waxing Crescent
Oct 11
First Quarter
Oct 18
Full
Oct 26
Last Quarter
Nov 3
New

Hourly Weather History & Observations

Time (EDT) Temp. Dew Point Humidity Pressure Visibility Wind Dir Wind Speed Gust Speed Precip Events Conditions
12:52 AM 60.1 °F 57.0 °F 90% 30.12 in 9.0 mi Calm Calm - N/A   Overcast
1:52 AM 60.1 °F 57.9 °F 93% 30.13 in 8.0 mi Calm Calm - N/A   Overcast
2:22 AM 60.1 °F 57.9 °F 93% 30.12 in 8.0 mi Calm Calm - N/A   Overcast
2:52 AM 60.1 °F 57.9 °F 93% 30.12 in 10.0 mi Calm Calm - N/A   Overcast
3:52 AM 61.0 °F 57.9 °F 90% 30.12 in 10.0 mi Calm Calm - N/A   Overcast
4:45 AM 61.0 °F 57.0 °F 87% 30.11 in 10.0 mi ENE 3.5 mph - N/A   Overcast
4:52 AM 61.0 °F 57.0 °F 87% 30.12 in 10.0 mi ENE 3.5 mph - N/A   Overcast
5:52 AM 61.0 °F 57.0 °F 87% 30.14 in 10.0 mi Variable 4.6 mph - N/A   Overcast
6:12 AM 61.0 °F 57.0 °F 87% 30.14 in 10.0 mi Calm Calm - N/A   Overcast
6:44 AM 61.0 °F 57.0 °F 87% 30.15 in 10.0 mi Calm Calm - N/A   Overcast
6:52 AM 61.0 °F 57.0 °F 87% 30.16 in 10.0 mi Calm Calm - N/A   Overcast
7:49 AM 60.8 °F 57.2 °F 88% 30.17 in 6.0 mi Calm Calm - 0.01 in Rain Light Rain
7:52 AM 60.1 °F 57.9 °F 93% 30.17 in 6.0 mi Calm Calm - 0.01 in Rain Light Rain
8:34 AM 60.1 °F 57.9 °F 93% 30.18 in 4.0 mi Calm Calm - 0.02 in Rain Rain
8:38 AM 60.1 °F 57.9 °F 93% 30.18 in 2.5 mi Calm Calm - 0.02 in Rain Light Rain
8:44 AM 60.1 °F 57.9 °F 93% 30.18 in 3.0 mi Calm Calm - 0.02 in Rain Light Rain
8:52 AM 61.0 °F 57.9 °F 90% 30.18 in 5.0 mi Calm Calm - 0.02 in Rain Light Rain
9:04 AM 61.0 °F 59.0 °F 93% 30.19 in 7.0 mi Variable 3.5 mph - 0.00 in   Overcast
9:25 AM 61.0 °F 57.9 °F 90% 30.19 in 8.0 mi East 5.8 mph - 0.01 in Rain Light Rain
9:52 AM 61.0 °F 57.9 °F 90% 30.19 in 10.0 mi Calm Calm - 0.01 in Rain Light Rain
10:32 AM 62.1 °F 59.0 °F 90% 30.20 in 10.0 mi Variable 3.5 mph - 0.00 in   Overcast
10:44 AM 62.1 °F 59.0 °F 90% 30.20 in 10.0 mi Variable 3.5 mph - 0.00 in   Overcast
10:52 AM 62.1 °F 59.0 °F 90% 30.20 in 10.0 mi NE 3.5 mph - 0.00 in   Overcast
11:35 AM 62.1 °F 59.0 °F 90% 30.20 in 10.0 mi Variable 3.5 mph - N/A   Overcast
11:52 AM 63.0 °F 59.0 °F 87% 30.20 in 10.0 mi NE 4.6 mph - N/A   Overcast
12:08 PM 62.1 °F 57.9 °F 86% 30.19 in 10.0 mi Calm Calm - N/A   Overcast
12:18 PM 63.0 °F 57.9 °F 84% 30.19 in 10.0 mi East 8.1 mph - N/A   Overcast
12:33 PM 63.0 °F 57.0 °F 81% 30.19 in 10.0 mi ESE 8.1 mph - N/A   Overcast
12:52 PM 63.0 °F 57.0 °F 81% 30.19 in 10.0 mi East 8.1 mph - N/A   Overcast
1:09 PM 63.0 °F 55.0 °F 75% 30.18 in 10.0 mi ESE 6.9 mph - N/A   Overcast
1:52 PM 63.0 °F 55.0 °F 75% 30.17 in 10.0 mi ESE 8.1 mph - N/A   Overcast
1:59 PM 62.1 °F 54.0 °F 75% 30.17 in 10.0 mi East 8.1 mph - N/A   Overcast
2:52 PM 60.1 °F 54.0 °F 80% 30.17 in 10.0 mi East 5.8 mph - 0.01 in Rain Light Rain
3:17 PM 60.1 °F 55.0 °F 83% 30.18 in 10.0 mi East 4.6 mph - 0.00 in Rain Light Rain
3:49 PM 60.8 °F 53.6 °F 77% 30.17 in 10.0 mi East 5.8 mph - 0.01 in   Overcast
3:52 PM 60.1 °F 54.0 °F 80% 30.17 in 10.0 mi East 4.6 mph - 0.01 in   Overcast
4:52 PM 60.1 °F 55.0 °F 83% 30.17 in 10.0 mi East 3.5 mph - N/A   Overcast
5:39 PM 60.1 °F 53.1 °F 78% 30.17 in 10.0 mi Variable 3.5 mph - N/A   Overcast
5:52 PM 60.1 °F 54.0 °F 80% 30.17 in 10.0 mi East 4.6 mph - N/A   Overcast
6:20 PM 60.1 °F 53.1 °F 78% 30.17 in 10.0 mi East 3.5 mph - N/A   Overcast
6:52 PM 59.0 °F 53.1 °F 81% 30.17 in 10.0 mi ESE 4.6 mph - N/A   Overcast
7:47 PM 59.0 °F 53.6 °F 82% 30.18 in 10.0 mi Calm Calm - N/A   Overcast
7:52 PM 59.0 °F 54.0 °F 83% 30.18 in 10.0 mi Calm Calm - N/A   Overcast
8:52 PM 59.0 °F 55.0 °F 87% 30.17 in 10.0 mi East 4.6 mph - N/A   Overcast
9:52 PM 57.9 °F 55.9 °F 93% 30.16 in 5.0 mi East 4.6 mph - N/A   Overcast
10:29 PM 57.9 °F 57.0 °F 97% 30.14 in 4.0 mi East 3.5 mph - N/A   Overcast
10:52 PM 59.0 °F 57.0 °F 93% 30.14 in 3.0 mi East 4.6 mph - N/A   Overcast
10:59 PM 59.0 °F 57.0 °F 93% 30.13 in 5.0 mi East 4.6 mph - N/A   Overcast
11:52 PM 60.1 °F 57.9 °F 93% 30.12 in 8.0 mi Calm Calm - 0.00 in Rain Light Rain